Showing default

CENTISPACE-1 S16, 62585

Orbit data source: Space-Track

CENTISPACE-1 S16, 62585 is a payload satellite owned by Centispace (CN) in LEO that was launched on Mon, 13 Jan 2025 UTC via a JIELONG-3 launch vehicle from the Yellow Sea Launch Area, China (YSLA). Payloads include a variety of satellites, spacecraft, and rockets equipped with specific instruments for various scientific and technological missions. These include communications satellites like Starlink; space stations such as the ISS; scientific satellites like the Hubble; Earth observation satellites from companies like Planet Labs, Umbra, and HawkEye 360; GPS; miniature CubeSats for education and research; and military/defense satellites.

Loading next visibility...
CENTISPACE-1 S16 details
Identifier
62585, 2025-007L
Orbit
LEO
Last TLE update9 hours ago
Origin
Flag of CNCentispace (CN / PRC)
ManufacturerHITSAT
MissionOperational spacecraft
Bus & MotorWK01H, Unknown motor
Mass160 kg wet, 160 kg dry
Launch date (UTC)
2025-01-13 (3 weeks ago)
Launch vehicle
JIELONG-3
Launch site
Yellow Sea Launch Area, China (YSLA)
Object type
Payload
Rocket body
Debris
Shape & HBRUnknown
Radar Cross SectionMedium (>0.1 m² and <1 m²)

Expand to show TLE details & history

TLE from 9 hours ago
0 CENTISPACE-1 S16
1 62585U 25007L   25035.80232962  .00004767  00000-0  72843-3 0  9998
2 62585  54.9827  35.6821 0013152 349.0375  11.0336 14.75258288  3345
Epoch: 2025-02-04T19:15Z
Definitive object data (Epoch: 2025-02-04T19:15:21.279Z)
Latitude-0°
Longitude-28.35896°
Altitude636.334 km
Speed7.546 km/s
True Right ascension02h 22m 43s
True Declination0° 00' 00"
Sunlit
Object was in daylight at TLE epoch
Visualization TLE readout
Latitude55.06778°
Longitude64.0387°
Altitude653.474 km
Speed7.536 km/s
Apparent Right ascension14h 09m 41s
Apparent Declination27° 32' 06"
Sunlit
Object is in full shadow
Visualization observer readout
Local Sidereal Time05:49:51
Azimuth46.88° ENE
Elevation-5.338°
Doppler factor1
Orbital elements
Apogee altitude653.534 km
Perigee altitude635.062 km
Semi-major axis7,022.435 km
Eccentricity0.0013152
Inclination54.9827°
RAAN35.6821°
Arg. of periapsis349.0375°
True anomaly11.06249°
Mean anomaly11.0336°
Eccentric anomaly11.04804°
Mean motion3.68818 °/min
BSTAR0.00072843
Orbital period97.61 mins
Loading maneuver chart data...
Loading historical data...
Loading historical data...
Loading historical data...
Loading historical data...
Loading historical data...
Loading historical data...
Loading historical data...

CENTISPACE-1 S16 Visibility forecast

Observer location: undefined°, undefined

Span
Click to sort rows by Start time (UTC) header in descending order
Start Az.
Max El. time (UTC)
Max El. Az.
Max El.
End time (UTC)
End Az.
4 mins2025-02-05 05:20:07.517Z319.508° NNW2025-02-05 05:22:07.517Z346.019° N13.6°2025-02-05 05:24:07.517Z13.45° NNE
7 mins2025-02-05 08:45:07.517Z334.135° NNW2025-02-05 08:48:07.517Z29.978° NE30.252°2025-02-05 08:52:07.517Z97.898° ESE
7 mins2025-02-05 10:27:07.517Z288.462° WNW2025-02-05 10:30:07.517Z218.587° SW32.568°2025-02-05 10:34:07.517Z161.56° S
7 mins2025-02-06 02:20:07.517Z229.07° WSW2025-02-06 02:23:07.517Z290.228° WNW44.836°2025-02-06 02:27:07.517Z45.632° ENE
|